Weather in Ludorvay

Russia / Udmurt Republic     56°45′26″N   53°05′34″E
temp.,
°C
wind,
m/s
gust,
m/s
humid.,
%
clouds,
%
prec.,
mm/h
press.,
hPa
HPBL,
m
18 april, sun
sun1801:00+4nnw22735 0.0 102326
04:00+3nnw23785 0.0 102329
07:00+4n25765 0.0 1022131
10:00+8ne566323 0.0 1023912
13:00+6ne6760100 0.0 10251210
16:00+6ne78385 0.0 10261430
19:00+4ne510485 0.0 1027534
22:00+2ene613527 0.0 1029641
19 april, mon
mon1901:000ene6135471 0.0 1031498
04:00−1ene5125659 0.0 1033446
07:000ene611474 0.0 1033769
10:00+3e79290 0.0 10341358
13:00+5e68270 0.0 10331627
16:00+6e67280 0.0 10331685
19:00+4e48400 0.0 1033270
22:000e37540 0.0 1034136
20 april, tue
tue2001:00−1e36560 0.0 1035123
04:00−1e34570 0.0 103679
07:00+1e24470 0.0 1036184
10:00+5ese34325 0.0 10361078
13:00+7ese33300 0.0 10351333
16:00+8ese22290 0.0 10341299
19:00+6se22420 0.0 103213
22:00+3ese22470 0.0 103310
21 april, wed
wed2101:00+1ese22550 0.0 103221
04:00+1sse22565 0.0 103310
07:00+3se26519 0.0 1032174
10:00+8se5738100 0.0 1031861
13:00+10sse6833100 0.0 10291276
16:00+11sse6935100 0.0 10281370
19:00+9sse51142100 0.0 1027423
22:00+7sse51349100 0.0 1027396
22 april, thu
thu2201:00+7sse51349100 0.0 1027452
04:00+6sse61353100 0.0 1027541
07:00+6s61260100 0.0 1027878
10:00+4s61295100 0.1 1028803
13:00+4s61096100 0.4 1029775
16:00+4s5997100 1.0 1030666
19:00+4s4997100 0.1 1030617
22:00+4s3896100 0.1 1030506